Regional Weather Roundup
Issued by NWS

Home | Current Version | Previous Version | Text Only | Print | Product List | Glossary On
Versions: 1 2 3 4 5 6 7 8 9 10 11 12 13 14 15 16 17 18 19 20 21 22 23 24 25 26 27 28 29 30 31 32 33 34 35 36 37 38 39 40 41 42 43 44 45 46 47 48 49 50
000
ASUS43 KDMX 221201
RWRIA

WEATHER ROUNDUP FOR IOWA
NATIONAL WEATHER SERVICE DES MOINES IA
600 AM CST THU FEB 22 2018

NOTE: "FAIR" INDICATES FEW OR NO CLOUDS BELOW 12,000 FEET WITH NO
SIGNIFICANT WEATHER AND/OR OBSTRUCTIONS TO VISIBILITY.

* - THESE STATIONS ARE NOT NWS STATIONS...THUS NOT UNDER NWS
QUALITY CONTROL.  THEY ALSO DO NOT REPORT WEATHER SUCH
AS PRECIPITATION OR FOG.

IAZ001>003-012>014-020>022-031>034-043>046-221300-
   NORTHWEST IOWA

CITY           SKY/WX    TMP DP  RH WIND       PRES   REMARKS
CARROLL *      CLOUDY    23  19  86 E10       30.46F WCI  12
CHEROKEE *     FAIR      20  19  94 NE3       30.47F
DENISON *      FLURRIES  21  18  86 E7        30.47F WCI  13
LE MARS *      CLOUDY    19  18  93 CALM      30.46F
ORANGE CITY *  CLOUDY    19  18  93 E3        30.45F
SHELDON *      FLURRIES  18  16  93 E7        30.45S WCI   8
SIOUX CITY     CLOUDY    20  17  88 E6        30.46F WCI  12
6HR MIN TEMP:  19; 6HR MAX TEMP:  20; 6HR PCP:  0.01;

SPENCER        LGT SNOW  19  16  88 E8        30.48S FOG     WCI   9
6HR MIN TEMP:  13; 6HR MAX TEMP:  19; 6HR PCP: TRACE;

STORM LAKE *   CLOUDY    19  18  93 E10       30.45F WCI   8
$$

IAZ055>058-069>071-079>083-090>094-221300-
   SOUTHWEST IOWA

CITY           SKY/WX    TMP DP  RH WIND       PRES   REMARKS
ATLANTIC *     CLOUDY    23  23 100 NE9       30.43F WCI  13
AUDUBON *      FLURRIES  23  19  86 E7        30.46R WCI  15
CLARINDA *     LGT SNOW  25  25 100 NE9       30.45F WCI  15
COUNCIL BLFS * LGT SNOW  21  23 100 NE10      30.42F WCI  10
CRESTON *      LGT SNOW  23  21  93 NE14      30.43F WCI  11
HARLAN  *      FLURRIES  23  23 100 E7        30.49R WCI  15
LAMONI         CLOUDY    25  21  85 NE15      30.40F WCI  13
6HR MIN TEMP:  24; 6HR MAX TEMP:  25; 6HR PCP:  0.03;

RED OAK *      FLURRIES  23  21  93 NE8       30.44S WCI  14
SHENANDOAH *   CLOUDY    25  23  93 NE10      30.43F WCI  15
$$

IAZ047>049-059>061-072>074-084-221300-
   CENTRAL IOWA

CITY           SKY/WX    TMP DP  RH WIND       PRES   REMARKS
AMES           CLOUDY    25  16  68 NE6       30.51R WCI  18
6HR MIN TEMP:  23; 6HR MAX TEMP:  25;

ANKENY *       CLOUDY    25  19  80 NE8       30.51S WCI  16
BOONE *        CLOUDY    23  19  86 E9        30.48R WCI  13
CHARITON *     CLOUDY    25  21  86 NE12      30.45F WCI  14
DES MOINES     FLURRIES  25  17  72 NE8       30.49R WCI  16
6HR MIN TEMP:  24; 6HR MAX TEMP:  26; 6HR PCP: TRACE;

GRINNELL*      CLOUDY    25  19  77 NE14      30.47F WCI  13
KNOXVILLE *    CLOUDY    27  18  69 NE6       30.48R WCI  20
MARSHALLTOWN   CLOUDY    24  17  74 E12       30.50R WCI  13
6HR MIN TEMP:  23; 6HR MAX TEMP:  24;

NEWTON *       CLOUDY    25  18  74 NE9       30.49R WCI  15
PELLA *        CLOUDY    26  19  75 NE8       30.50R WCI  18
PERRY *        CLOUDY    24  19  79 E8        30.48F WCI  16
$$

IAZ004>006-015-016-023>025-035-036-221300-
   NORTH CENTRAL IOWA

CITY           SKY/WX    TMP DP  RH WIND       PRES   REMARKS
CLARION *      CLOUDY    21  21 100 E15       30.51R WCI   8
ESTHERVILLE    LGT SNOW  16  13  88 NE7       30.49S FOG     WCI   6
6HR MIN TEMP:  11; 6HR MAX TEMP:  16; 6HR PCP: TRACE;

FORT DODGE *   FLURRIES  21  18  88 NE6       30.50S WCI  13
MASON CITY     CLOUDY    21  18  88 E8        30.53S WCI  11
6HR MIN TEMP:  20; 6HR MAX TEMP:  21; 6HR PCP:  0.02;

FOREST CITY *  MOCLDY    23  21  93 E6        30.50F WCI  16
WEBSTER CITY * CLOUDY    23  16  74 E12       30.47F WCI  12
IOWA FALLS *   CLOUDY    24  19  78 N8        30.50F WCI  16
$$

IAZ007>011-017>019-026>030-037>042-050>054-066-221300-
   NORTHEAST IOWA

CITY           SKY/WX    TMP DP  RH WIND       PRES   REMARKS
CEDAR RAPIDS   CLOUDY    26  14  60 NE15      30.49F WCI  14
6HR MIN TEMP:  25; 6HR MAX TEMP:  26;

CHARLES CITY * LGT SNOW  21  21 100 E9        30.53F WCI  11
CLINTON *      CLOUDY    27  20  75 NE12      30.55R WCI  17
DECORAH *      CLOUDY    21  18  86 NE5       30.54F WCI  15
DUBUQUE        CLOUDY    24  14  65 NE13      30.54R WCI  12
6HR MIN TEMP:  23; 6HR MAX TEMP:  24;

MONTICELLO *   CLOUDY    25  16  68 NE8G14    30.53F WCI  16
OELWEIN *      CLOUDY    23  19  86 NE14      30.51F WCI  11
WATERLOO       CLOUDY    23  16  74 NE15      30.49F WCI  10
6HR MIN TEMP:  23; 6HR MAX TEMP:  23;

$$

IAZ064-065-067-068-078-221300-
   EAST CENTRAL IOWA

CITY           SKY/WX    TMP DP  RH WIND       PRES   REMARKS
DAVENPORT      CLOUDY    28  19  69 NE13      30.54R WCI  17
6HR MIN TEMP:  26; 6HR MAX TEMP:  28;

IOWA CITY      CLOUDY    28  15  58 NE13      30.52F WCI  17
6HR MIN TEMP:  27; 6HR MAX TEMP:  28;

MT. PLEASANT * CLOUDY    28  21  74 NE10      30.48F WCI  19
MUSCATINE *    CLOUDY    28  19  69 NE12      30.52F WCI  18
QUAD CITIES    CLOUDY    29  20  69 NE12      30.52R WCI  19
6HR MIN TEMP:  27; 6HR MAX TEMP:  29;

$$

IAZ062-063-075>077-085>089-095>099-221300-
   SOUTHEAST IOWA

CITY           SKY/WX    TMP DP  RH WIND       PRES   REMARKS
BURLINGTON     MIX PCPN  29  22  75 NE10      30.48R WCI  20
6HR MIN TEMP:  27; 6HR MAX TEMP:  29; 6HR PCP: TRACE;

FAIRFIELD *    CLOUDY    28  18  64 NE13      30.47S WCI  18
FORT MADISON * MIX PCPN  28  25  86 NE9       30.47F WCI  20
KEOKUK *       CLOUDY    28  25  86 NE10      30.45F WCI  19
OSKALOOSA *    CLOUDY    26  20  77 E13       30.46S WCI  15
OTTUMWA        CLOUDY    27  19  72 E13       30.45F WCI  16
6HR MIN TEMP:  26; 6HR MAX TEMP:  27;

WASHINGTON *   CLOUDY    28  23  80 NE13      30.51R WCI  18
$$

ABBREVIATIONS USED IN REMARKS
   TC - TEMPERATURES IN CELSIUS
  WCI - WIND CHILL INDEX
   HX - HEAT INDEX
  VSB - VISIBILITY
$$




USA.gov is the U.S. government's official web portal to all federal, state and local government web resources and services.